This is the latest recevied weather packets stored in our database for station/object IZ1UQG-1. If no packets are shown the sender has not sent any weather packets the latest 10 day(s).
| Time | Temp. | Humidity | Pressure | Rain* | Wind** | Luminosity | Snow |
|---|---|---|---|---|---|---|---|
| 1777101857 | 18.89° C | 52% | 1016 hPa | 96.01 mm | - | - | - |
| 1777101557 | 18.33° C | 52% | 1016.1 hPa | 64.52 mm | - | - | - |
| 1777101257 | 18.33° C | 53% | 1016.1 hPa | 107.95 mm | - | - | - |
| 1777100957 | 17.78° C | 53% | 1016.3 hPa | 74.93 mm | - | - | - |
| 1777100657 | 17.78° C | 53% | 1016.2 hPa | 136.91 mm | - | - | - |
| 1777100357 | 17.78° C | 54% | 1016.3 hPa | 80.01 mm | - | - | - |
| 1777100057 | 17.22° C | 55% | 1016.3 hPa | 147.83 mm | - | - | - |
| 1777099757 | 17.22° C | 55% | 1016.3 hPa | 146.81 mm | - | - | - |
| 1777099457 | 16.67° C | 56% | 1016.4 hPa | 151.38 mm | - | - | - |
| 1777099157 | 16.67° C | 56% | 1016.4 hPa | 137.41 mm | - | - | - |
| 1777098857 | 16.11° C | 57% | 1016.4 hPa | 188.72 mm | - | - | - |
| 1777098557 | 16.11° C | 57% | 1016.5 hPa | 164.85 mm | - | - | - |
| 1777098257 | 15.56° C | 58% | 1016.6 hPa | 202.69 mm | - | - | - |
| 1777097957 | 15.56° C | 58% | 1016.5 hPa | 191.77 mm | - | - | - |
| 1777097657 | 15.56° C | 58% | 1016.6 hPa | 233.93 mm | - | - | - |
| 1777097357 | 15° C | 58% | 1016.5 hPa | 229.11 mm | - | - | - |
| 1777097057 | 15° C | 59% | 1016.6 hPa | 233.43 mm | - | - | - |
| 1777096757 | 15° C | 58% | 1016.4 hPa | 163.32 mm | - | - | - |
| 1777096457 | 15° C | 58% | 1016.4 hPa | 4.06 mm | - | - | - |
| 1777096157 | 14.44° C | 58% | 1016.6 hPa | 242.57 mm | - | - | - |
| 1777095857 | 14.44° C | 58% | 1016.5 hPa | 228.09 mm | - | - | - |
| 1777095557 | 14.44° C | 58% | 1016.5 hPa | 219.96 mm | - | - | - |
| 1777095257 | 14.44° C | 58% | 1016.5 hPa | 248.41 mm | - | - | - |
| 1777094957 | 14.44° C | 58% | 1016.6 hPa | 222 mm | - | - | - |
| 1777094657 | 13.89° C | 58% | 1016.4 hPa | 219.2 mm | - | - | - |
* Rain latest hour (hover to see other rain measurements)
** Current wind speed in m/s (hover to see current wind gust speed)